SCP
0 0 0 0 0 0 0 0 0 0 0 0 0 0 0 0 0 0 0 0 0 1 2 2 1 1 1 1 1 1 1 1 1 1 1 1 1 1 1 0 0 0 0
0 0 0 0 0 0 0 0 0 0 0 0 0 0 0 0 0 0 0 0 1 1 1 1 2 2 1 1 1 1 1 1 1 1 1 1 1 1 1 1 1 1 0
0 0 0 0 0 0 0 0 0 0 0 0 0 0 0 0 0 0 0 0 0 1 1 1 1 1 2 2 1 1 1 1 1 1 1 1 1 1 1 0 1 0 0
0 0 0 0 0 0 0 0 0 0 0 0 0 0 0 0 0 0 0 0 0 0 1 1 1 1 2 1 0 0 1 1 1 1 1 1 1 1 1 0 0 0 1
0 0 0 0 0 0 0 0 0 0 0 0 0 0 0 0 0 0 0 0 0 1 1 1 1 1 2 1 1 1 1 1 1 1 1 1 1 0 1 0 1 1 1
0 0 0 0 0 1 1 1 1 1 1 1 1 1 0 0 0 1 0 0 0 0 0 0 0 1 1 1 1 1 1 1 1 0 0 0 0 0 0 1 1 1 1
0 0 0 1 1 2 1 1 1 1 1 1 1 0 0 0 0 0 0 0 0 0 0 0 0 0 0 0 0 0 0 1 1 1 0 0 0 0 0 0 1 0 1
0 0 0 1 1 2 1 1 1 1 1 1 1 0 0 0 0 0 0 0 0 0 0 0 0 0 0 0 0 1 1 1 0 1 0 0 0 0 0 0 0 1 0
1 1 1 2 2 2 2 2 2 1 0 0 0 0 0 0 0 0 0 0 0 0 0 0 0 0 0 0 1 1 1 0 0 0 0 0 0 0 0 0 0 0 0
2 3 3 4 3 3 2 2 0 0 0 0 0 0 0 0 0 0 0 0 0 0 0 0 0 0 0 1 0 0 0 0 0 0 0 0 0 0 0 0 0 1 0
4 4 4 3 3 2 2 1 0 0 0 1 1 1 0 0 0 0 0 0 0 0 0 0 0 1 1 1 0 0 0 0 0 0 0 0 0 0 0 0 0 0 1
3 2 2 2 2 1 1 1 1 1 0 1 1 0 0 1 0 0 0 0 0 0 0 0 0 0 0 0 0 0 0 0 0 0 0 0 0 0 0 0 0 1 1
3 1 1 1 1 1 1 0 0 0 0 0 0 0 0 0 0 0 0 0 0 0 0 0 0 0 0 0 0 0 0 0 0 0 0 0 0 -0 0 0 0 0 0
2 1 1 1 1 0 0 0 0 0 0 0 0 0 0 0 0 0 0 0 0 0 0 0 0 0 0 0 0 0 0 0 0 0 0 -0 -0 0 -0 -0 -0 0 0
1 0 0 0 0 0 0 0 0 0 0 0 0 0 0 0 0 0 0 0 0 0 0 0 0 0 0 0 0 0 0 0 0 0 0 0 0 0 -0 -0 -0 0 0
0 0 0 0 0 0 0 0 0 0 0 0 0 0 0 0 0 0 0 0 0 0 0 0 0 0 0 0 0 0 0 0 0 0 0 0 0 -0 0 0 0 0 0
0 0 0 0 0 0 0 0 0 0 0 0 0 0 0 0 0 0 0 0 0 0 0 0 0 0 0 0 0 0 0 0 0 0 0 0 0 -0 -0 0 0 0 0
0 0 0 0 0 0 0 0 0 0 0 0 0 0 0 0 0 0 0 0 0 0 0 0 0 0 0 0 0 0 0 0 0 0 0 0 0 0 0 0 0 0 0
0 0 0 0 0 0 0 0 0 0 0 0 0 0 0 0 0 0 0 0 0 0 0 0 0 0 0 0 0 0 0 0 0 0 0 0 0 0 0 0 0 0 0
0 0 0 0 0 0 0 0 0 0 0 0 0 0 0 0 0 0 0 0 0 0 0 0 0 0 0 0 0 0 0 0 0 0 0 0 0 0 0 0 0 0 0
0 0 0 0 0 0 0 0 0 0 0 0 0 0 0 0 0 0 0 0 0 0 0 0 0 0 0 0 0 0 0 0 0 0 0 0 0 0 0 0 0 0 0
0 0 0 0 0 0 0 0 0 0 0 0 0 0 0 0 0 0 0 0 0 0 0 0 0 0 0 0 0 0 0 0 0 0 0 0 0 0 0 0 0 0 0
0 0 0 0 0 0 0 0 0 0 0 0 0 0 0 0 0 0 0 0 0 0 0 0 0 0 0 0 0 0 0 0 0 0 0 0 0 0 0 0 0 0 0
0 0 0 0 0 0 0 0 0 0 0 0 0 0 0 0 0 0 0 0 0 0 0 0 0 0 0 0 0 0 0 0 0 0 0 0 0 0 0 0 0 0 0
0 0 0 0 0 0 0 0 0 0 0 0 0 0 0 0 0 0 0 0 0 0 0 0 0 0 0 0 0 0 0 0 0 0 0 0 0 0 0 0 0 0 0
0 0 0 0 0 0 0 0 0 0 0 0 0 0 0 0 0 0 0 0 0 0 0 0 0 0 0 0 0 0 0 0 0 0 0 0 0 0 0 0 0 0 0
Wind_Speed_500mb
39 36 37 33 25 20 13 3 1 6 9 11 14 16 18 19 24 26 29 32 37 41 46 44 44 44 49 51 45 47 43 44 45 47 50 49 48 48 52 54 49 46 46
40 38 34 30 29 25 16 13 12 17 19 22 23 24 24 26 30 33 35 36 35 35 37 39 38 40 46 50 53 48 47 46 48 51 52 52 50 49 49 54 55 52 49
41 40 37 30 22 21 21 21 19 19 20 19 26 26 25 27 34 35 36 39 41 45 42 45 50 49 47 48 37 48 52 51 50 48 48 49 48 49 51 52 56 54 50
40 40 38 32 23 26 29 33 31 30 30 32 36 36 35 38 43 41 38 42 48 53 49 42 50 56 68 47 42 43 48 50 55 57 54 51 57 58 59 59 58 49 51
36 42 38 32 28 31 28 31 37 35 37 43 46 45 45 47 47 48 51 52 48 51 58 52 44 58 60 45 37 42 48 52 53 56 61 68 72 71 69 65 60 55 54
30 27 34 37 35 38 37 35 37 43 47 47 50 51 54 55 57 63 61 53 58 60 60 58 46 38 39 40 39 45 43 47 54 55 51 54 65 64 63 71 75 71 64
33 32 30 26 28 39 45 41 40 44 50 54 57 63 61 53 57 54 47 39 47 44 40 38 39 36 37 36 38 43 45 51 58 55 57 61 57 54 57 59 58 57 51
42 34 31 28 25 24 30 42 48 48 49 50 39 45 47 52 44 33 29 34 33 38 39 38 40 44 42 44 48 44 46 59 52 57 58 58 53 59 51 46 41 36 34
45 39 35 31 32 36 37 37 48 55 49 48 52 36 19 15 36 52 45 40 40 44 39 31 34 37 36 43 40 45 52 55 56 56 55 55 51 46 44 41 48 49 44
48 43 37 37 37 38 40 34 48 49 37 44 36 34 36 40 42 36 49 47 47 41 34 34 39 36 38 42 43 45 44 45 51 48 38 35 34 36 30 30 24 28 33
53 46 42 39 44 41 43 43 45 42 36 35 29 32 32 33 36 37 42 51 53 52 46 42 42 40 40 45 42 42 41 34 38 42 33 30 33 36 33 35 35 20 14
42 41 46 47 49 46 40 40 33 31 29 29 28 28 30 31 34 32 40 50 53 55 64 54 43 41 34 34 40 34 29 32 35 34 29 32 35 41 45 32 16 15 18
43 53 55 48 43 38 32 24 21 23 23 22 27 28 29 29 33 36 43 48 48 54 46 45 34 33 23 22 24 27 31 34 35 32 30 37 41 41 38 28 18 20 22
48 50 45 39 32 26 23 17 16 14 17 20 27 30 34 35 33 28 30 34 38 38 34 32 28 28 32 30 28 30 37 37 37 31 31 22 23 26 28 32 31 22 19
40 38 37 31 29 24 20 19 20 23 27 20 20 25 25 24 24 26 28 25 25 23 30 19 28 29 24 20 21 25 27 30 31 22 43 37 17 23 25 30 29 30 28
43 36 34 32 29 25 26 25 21 16 13 13 16 17 20 23 24 26 27 28 29 22 19 24 33 38 37 34 28 28 21 15 20 41 38 36 38 42 40 37 38 33 35
39 38 34 32 28 24 18 13 9 8 14 16 19 22 25 27 29 30 32 33 36 37 38 43 39 43 44 46 42 31 29 29 28 32 35 40 52 53 56 55 49 57 43
44 41 35 30 26 20 15 11 12 17 20 22 25 26 29 32 33 33 32 33 36 37 40 47 49 45 41 41 41 41 34 28 31 37 43 47 51 57 62 68 66 58 64
45 39 31 24 18 14 12 15 18 20 23 28 33 35 35 30 26 27 28 32 38 42 43 42 43 41 39 39 43 42 41 42 40 37 40 46 50 55 56 58 57 61 69
44 34 26 22 17 14 18 20 23 27 33 36 35 27 17 13 14 18 29 36 42 46 43 36 36 38 39 40 39 43 45 41 42 42 49 53 54 51 49 48 51 54 62
36 29 26 18 16 15 17 21 26 26 22 16 8 4 8 14 22 30 38 41 40 35 32 31 32 36 38 42 46 47 45 45 43 37 36 32 40 51 62 64 59 53 48
30 24 17 14 13 13 17 18 17 14 8 5 4 2 8 21 29 31 25 31 30 26 27 29 32 33 36 36 37 41 42 47 55 43 58 58 46 41 35 36 48 70 71
22 16 11 4 6 10 12 16 16 12 9 8 3 3 10 15 22 28 30 22 21 18 22 25 28 29 30 32 42 43 43 43 47 52 50 65 52 43 36 34 33 33 46
16 11 7 5 8 13 16 14 11 10 9 8 6 4 8 15 23 27 22 23 16 17 17 17 21 25 30 32 36 39 46 56 59 58 51 58 51 47 40 33 36 41 35
16 13 12 11 11 11 11 7 6 8 6 4 4 7 13 21 20 21 22 23 17 13 13 17 23 29 30 31 35 41 46 51 66 67 50 37 53 63 56 50 38 23 16
14 15 16 14 13 10 8 5 6 6 5 3 6 8 14 16 17 15 17 23 27 29 29 29 32 38 42 44 45 41 44 52 52 60 49 62 56 47 32 60 42 43 39
Wind_Direction_500mb
209 208 210 211 210 203 191 186 78 240 277 282 268 284 301 304 309 304 299 295 295 298 299 297 294 292 296 297 295 301 293 286 284 282 282 282 282 281 273 271 271 270 268
209 213 207 204 211 215 217 234 254 273 271 266 269 270 277 287 307 302 297 297 299 297 298 289 289 297 298 296 292 285 286 285 282 279 278 279 279 278 279 273 269 266 269
213 212 214 209 212 225 236 245 255 268 258 269 265 254 260 276 291 288 284 282 285 282 284 273 273 275 278 282 282 276 276 286 286 288 287 282 279 277 274 274 270 269 266
217 216 217 217 221 245 256 256 261 263 268 272 279 279 275 278 276 279 278 278 282 285 287 281 278 270 292 289 278 279 283 290 292 292 286 282 285 282 279 275 269 270 263
213 218 221 223 220 240 245 250 255 263 267 269 273 273 273 275 277 280 283 285 287 288 288 291 288 287 293 282 276 286 298 293 291 294 288 283 283 278 272 273 265 265 265
205 210 223 231 230 232 237 240 251 261 264 266 267 270 273 276 276 285 283 282 287 288 291 295 291 293 294 286 285 284 286 290 295 304 297 292 297 285 280 271 266 267 269
224 224 226 230 241 243 241 248 256 261 266 274 282 282 284 286 283 285 285 292 292 298 301 295 297 297 292 280 284 282 288 301 300 305 301 304 301 293 288 278 273 269 264
230 231 233 234 248 249 251 259 258 262 268 276 280 287 294 296 299 296 295 302 297 297 301 304 287 276 291 276 293 290 301 314 310 304 298 301 295 299 294 270 266 264 260
237 233 244 236 241 255 262 271 270 269 269 275 286 284 297 280 295 299 301 301 298 302 296 291 298 291 286 290 293 307 319 317 309 302 301 301 298 295 290 280 264 267 259
238 244 242 241 257 260 267 275 275 269 267 280 283 284 283 284 291 294 297 299 299 301 303 290 298 294 290 289 294 305 312 314 313 312 311 313 301 276 276 276 255 261 267
238 243 236 237 247 255 260 265 272 280 276 277 283 285 287 282 284 294 304 302 301 307 311 309 310 304 295 292 291 300 301 307 309 310 310 303 272 268 275 282 288 260 241
226 239 246 240 244 256 260 266 261 266 273 275 279 284 291 298 304 305 307 306 304 307 308 311 315 311 304 295 289 299 296 302 307 304 296 289 289 280 289 284 269 304 271
215 226 233 237 246 251 253 253 251 255 267 281 290 293 299 297 298 300 300 300 304 307 312 314 323 325 319 316 290 284 286 294 293 293 285 276 276 280 283 265 271 277 259
222 227 238 237 237 232 231 239 251 249 266 279 282 288 291 291 294 295 305 305 312 312 323 324 322 321 328 319 316 294 291 306 308 306 326 303 282 275 276 267 261 263 265
209 212 217 221 215 217 223 237 236 246 259 258 263 271 278 280 287 295 295 305 303 321 317 315 317 314 327 331 325 312 315 305 296 296 314 279 232 252 277 269 258 255 250
204 199 207 208 210 217 243 250 244 246 262 261 263 276 281 282 289 297 302 304 305 302 299 299 302 312 317 311 310 306 298 300 269 283 292 264 260 268 276 276 269 253 254
198 199 198 199 211 218 204 204 210 244 263 271 285 286 285 292 296 296 292 292 292 294 301 300 301 301 301 301 301 303 295 291 276 267 260 244 245 254 257 264 268 263 262
185 187 191 192 190 187 198 226 247 250 265 277 283 286 291 295 296 294 294 298 301 308 313 313 309 309 309 306 301 296 289 284 280 269 269 270 264 265 268 266 260 258 254
176 176 182 187 189 206 242 258 272 280 291 294 294 298 296 295 291 296 302 306 309 313 315 316 316 317 313 313 308 305 296 284 274 272 267 267 270 271 270 269 267 263 260
176 175 182 201 207 234 256 273 287 299 302 302 305 303 297 293 304 318 319 314 314 316 316 320 324 329 332 335 336 332 315 313 304 291 284 279 276 271 269 269 267 265 259
172 181 196 206 240 257 278 295 307 315 323 344 11 343 1 337 321 317 321 319 320 320 321 330 341 339 341 344 348 345 338 341 345 352 332 312 302 281 271 265 261 258 256
174 187 205 238 265 302 328 337 350 5 26 77 98 304 321 319 322 321 331 336 331 323 325 333 341 344 350 347 352 349 344 341 339 353 329 323 322 303 293 284 272 261 256
182 198 216 251 333 6 24 30 49 44 61 65 147 251 331 340 336 332 343 357 0 6 356 349 347 346 347 347 341 337 335 331 326 327 331 326 331 317 309 289 284 285 278
176 168 140 79 54 69 68 66 53 27 24 48 61 29 333 329 336 346 7 8 19 13 1 355 343 338 336 334 331 324 321 318 321 327 330 314 334 325 314 299 289 288 288
147 131 107 100 93 91 89 72 14 352 355 9 17 354 347 335 351 10 12 10 17 7 349 333 320 317 314 308 308 312 320 320 320 323 338 320 318 318 313 315 323 311 279
135 121 123 119 110 93 88 56 30 14 350 326 326 346 343 11 11 7 355 346 346 344 334 320 312 307 310 312 312 308 310 313 317 322 319 320 321 324 316 316 314 310 297
Wind_Speed_850mb
39 36 37 33 25 20 13 3 1 6 9 11 14 16 18 19 24 26 29 32 37 41 46 44 44 44 49 51 45 47 43 44 45 47 50 49 48 48 52 54 49 46 46
40 38 34 30 29 25 16 13 12 17 19 22 23 24 24 26 30 33 35 36 35 35 37 39 38 40 46 50 53 48 47 46 48 51 52 52 50 49 49 54 55 52 49
41 40 37 30 22 21 21 21 19 19 20 19 26 26 25 27 34 35 36 39 41 45 42 45 50 49 47 48 37 48 52 51 50 48 48 49 48 49 51 52 56 54 50
40 40 38 32 23 26 29 33 31 30 30 32 36 36 35 38 43 41 38 42 48 53 49 42 50 56 68 47 42 43 48 50 55 57 54 51 57 58 59 59 58 49 51
36 42 38 32 28 31 28 31 37 35 37 43 46 45 45 47 47 48 51 52 48 51 58 52 44 58 60 45 37 42 48 52 53 56 61 68 72 71 69 65 60 55 54
30 27 34 37 35 38 37 35 37 43 47 47 50 51 54 55 57 63 61 53 58 60 60 58 46 38 39 40 39 45 43 47 54 55 51 54 65 64 63 71 75 71 64
33 32 30 26 28 39 45 41 40 44 50 54 57 63 61 53 57 54 47 39 47 44 40 38 39 36 37 36 38 43 45 51 58 55 57 61 57 54 57 59 58 57 51
42 34 31 28 25 24 30 42 48 48 49 50 39 45 47 52 44 33 29 34 33 38 39 38 40 44 42 44 48 44 46 59 52 57 58 58 53 59 51 46 41 36 34
45 39 35 31 32 36 37 37 48 55 49 48 52 36 19 15 36 52 45 40 40 44 39 31 34 37 36 43 40 45 52 55 56 56 55 55 51 46 44 41 48 49 44
48 43 37 37 37 38 40 34 48 49 37 44 36 34 36 40 42 36 49 47 47 41 34 34 39 36 38 42 43 45 44 45 51 48 38 35 34 36 30 30 24 28 33
53 46 42 39 44 41 43 43 45 42 36 35 29 32 32 33 36 37 42 51 53 52 46 42 42 40 40 45 42 42 41 34 38 42 33 30 33 36 33 35 35 20 14
42 41 46 47 49 46 40 40 33 31 29 29 28 28 30 31 34 32 40 50 53 55 64 54 43 41 34 34 40 34 29 32 35 34 29 32 35 41 45 32 16 15 18
43 53 55 48 43 38 32 24 21 23 23 22 27 28 29 29 33 36 43 48 48 54 46 45 34 33 23 22 24 27 31 34 35 32 30 37 41 41 38 28 18 20 22
48 50 45 39 32 26 23 17 16 14 17 20 27 30 34 35 33 28 30 34 38 38 34 32 28 28 32 30 28 30 37 37 37 31 31 22 23 26 28 32 31 22 19
40 38 37 31 29 24 20 19 20 23 27 20 20 25 25 24 24 26 28 25 25 23 30 19 28 29 24 20 21 25 27 30 31 22 43 37 17 23 25 30 29 30 28
43 36 34 32 29 25 26 25 21 16 13 13 16 17 20 23 24 26 27 28 29 22 19 24 33 38 37 34 28 28 21 15 20 41 38 36 38 42 40 37 38 33 35
39 38 34 32 28 24 18 13 9 8 14 16 19 22 25 27 29 30 32 33 36 37 38 43 39 43 44 46 42 31 29 29 28 32 35 40 52 53 56 55 49 57 43
44 41 35 30 26 20 15 11 12 17 20 22 25 26 29 32 33 33 32 33 36 37 40 47 49 45 41 41 41 41 34 28 31 37 43 47 51 57 62 68 66 58 64
45 39 31 24 18 14 12 15 18 20 23 28 33 35 35 30 26 27 28 32 38 42 43 42 43 41 39 39 43 42 41 42 40 37 40 46 50 55 56 58 57 61 69
44 34 26 22 17 14 18 20 23 27 33 36 35 27 17 13 14 18 29 36 42 46 43 36 36 38 39 40 39 43 45 41 42 42 49 53 54 51 49 48 51 54 62
36 29 26 18 16 15 17 21 26 26 22 16 8 4 8 14 22 30 38 41 40 35 32 31 32 36 38 42 46 47 45 45 43 37 36 32 40 51 62 64 59 53 48
30 24 17 14 13 13 17 18 17 14 8 5 4 2 8 21 29 31 25 31 30 26 27 29 32 33 36 36 37 41 42 47 55 43 58 58 46 41 35 36 48 70 71
22 16 11 4 6 10 12 16 16 12 9 8 3 3 10 15 22 28 30 22 21 18 22 25 28 29 30 32 42 43 43 43 47 52 50 65 52 43 36 34 33 33 46
16 11 7 5 8 13 16 14 11 10 9 8 6 4 8 15 23 27 22 23 16 17 17 17 21 25 30 32 36 39 46 56 59 58 51 58 51 47 40 33 36 41 35
16 13 12 11 11 11 11 7 6 8 6 4 4 7 13 21 20 21 22 23 17 13 13 17 23 29 30 31 35 41 46 51 66 67 50 37 53 63 56 50 38 23 16
14 15 16 14 13 10 8 5 6 6 5 3 6 8 14 16 17 15 17 23 27 29 29 29 32 38 42 44 45 41 44 52 52 60 49 62 56 47 32 60 42 43 39
Wind_Direction_850mb
209 208 210 211 210 203 191 186 78 240 277 282 268 284 301 304 309 304 299 295 295 298 299 297 294 292 296 297 295 301 293 286 284 282 282 282 282 281 273 271 271 270 268
209 213 207 204 211 215 217 234 254 273 271 266 269 270 277 287 307 302 297 297 299 297 298 289 289 297 298 296 292 285 286 285 282 279 278 279 279 278 279 273 269 266 269
213 212 214 209 212 225 236 245 255 268 258 269 265 254 260 276 291 288 284 282 285 282 284 273 273 275 278 282 282 276 276 286 286 288 287 282 279 277 274 274 270 269 266
217 216 217 217 221 245 256 256 261 263 268 272 279 279 275 278 276 279 278 278 282 285 287 281 278 270 292 289 278 279 283 290 292 292 286 282 285 282 279 275 269 270 263
213 218 221 223 220 240 245 250 255 263 267 269 273 273 273 275 277 280 283 285 287 288 288 291 288 287 293 282 276 286 298 293 291 294 288 283 283 278 272 273 265 265 265
205 210 223 231 230 232 237 240 251 261 264 266 267 270 273 276 276 285 283 282 287 288 291 295 291 293 294 286 285 284 286 290 295 304 297 292 297 285 280 271 266 267 269
224 224 226 230 241 243 241 248 256 261 266 274 282 282 284 286 283 285 285 292 292 298 301 295 297 297 292 280 284 282 288 301 300 305 301 304 301 293 288 278 273 269 264
230 231 233 234 248 249 251 259 258 262 268 276 280 287 294 296 299 296 295 302 297 297 301 304 287 276 291 276 293 290 301 314 310 304 298 301 295 299 294 270 266 264 260
237 233 244 236 241 255 262 271 270 269 269 275 286 284 297 280 295 299 301 301 298 302 296 291 298 291 286 290 293 307 319 317 309 302 301 301 298 295 290 280 264 267 259
238 244 242 241 257 260 267 275 275 269 267 280 283 284 283 284 291 294 297 299 299 301 303 290 298 294 290 289 294 305 312 314 313 312 311 313 301 276 276 276 255 261 267
238 243 236 237 247 255 260 265 272 280 276 277 283 285 287 282 284 294 304 302 301 307 311 309 310 304 295 292 291 300 301 307 309 310 310 303 272 268 275 282 288 260 241
226 239 246 240 244 256 260 266 261 266 273 275 279 284 291 298 304 305 307 306 304 307 308 311 315 311 304 295 289 299 296 302 307 304 296 289 289 280 289 284 269 304 271
215 226 233 237 246 251 253 253 251 255 267 281 290 293 299 297 298 300 300 300 304 307 312 314 323 325 319 316 290 284 286 294 293 293 285 276 276 280 283 265 271 277 259
222 227 238 237 237 232 231 239 251 249 266 279 282 288 291 291 294 295 305 305 312 312 323 324 322 321 328 319 316 294 291 306 308 306 326 303 282 275 276 267 261 263 265
209 212 217 221 215 217 223 237 236 246 259 258 263 271 278 280 287 295 295 305 303 321 317 315 317 314 327 331 325 312 315 305 296 296 314 279 232 252 277 269 258 255 250
204 199 207 208 210 217 243 250 244 246 262 261 263 276 281 282 289 297 302 304 305 302 299 299 302 312 317 311 310 306 298 300 269 283 292 264 260 268 276 276 269 253 254
198 199 198 199 211 218 204 204 210 244 263 271 285 286 285 292 296 296 292 292 292 294 301 300 301 301 301 301 301 303 295 291 276 267 260 244 245 254 257 264 268 263 262
185 187 191 192 190 187 198 226 247 250 265 277 283 286 291 295 296 294 294 298 301 308 313 313 309 309 309 306 301 296 289 284 280 269 269 270 264 265 268 266 260 258 254
176 176 182 187 189 206 242 258 272 280 291 294 294 298 296 295 291 296 302 306 309 313 315 316 316 317 313 313 308 305 296 284 274 272 267 267 270 271 270 269 267 263 260
176 175 182 201 207 234 256 273 287 299 302 302 305 303 297 293 304 318 319 314 314 316 316 320 324 329 332 335 336 332 315 313 304 291 284 279 276 271 269 269 267 265 259
172 181 196 206 240 257 278 295 307 315 323 344 11 343 1 337 321 317 321 319 320 320 321 330 341 339 341 344 348 345 338 341 345 352 332 312 302 281 271 265 261 258 256
174 187 205 238 265 302 328 337 350 5 26 77 98 304 321 319 322 321 331 336 331 323 325 333 341 344 350 347 352 349 344 341 339 353 329 323 322 303 293 284 272 261 256
182 198 216 251 333 6 24 30 49 44 61 65 147 251 331 340 336 332 343 357 0 6 356 349 347 346 347 347 341 337 335 331 326 327 331 326 331 317 309 289 284 285 278
176 168 140 79 54 69 68 66 53 27 24 48 61 29 333 329 336 346 7 8 19 13 1 355 343 338 336 334 331 324 321 318 321 327 330 314 334 325 314 299 289 288 288
147 131 107 100 93 91 89 72 14 352 355 9 17 354 347 335 351 10 12 10 17 7 349 333 320 317 314 308 308 312 320 320 320 323 338 320 318 318 313 315 323 311 279
135 121 123 119 110 93 88 56 30 14 350 326 326 346 343 11 11 7 355 346 346 344 334 320 312 307 310 312 312 308 310 313 317 322 319 320 321 324 316 316 314 310 297